Back to catalog

SL-14 DEB

AlivePO
NORAD 26018·DEBRIS·🇷🇺 Russia

Launched Sep 28, 1991 from Plesetsk Cosmodrome

Loading…

Next Passes (next 24 hours)

TLE

FreshSource: Space-Track

Epoch: Sep 14, 2026, 10:29 UTC

1 26018U 91068AD  26257.43704620 -.00000003  00000-0 -90845-4 0  9994
2 26018  82.7099 245.8770 0018180 325.4428 188.8094 12.45385302593179

Track SL-14 DEB in real time with AllMySat

Download on the App Store